Location: L�Adrech
(44.2500°N, 6.4167°E)
Time: 15:56:36
(UTC+00:00)

Cosmos 2344 - Pass Details

Date: 07 June 2020
Orbit: 1250 x 2992 km, 63.3° (Epoch: 09 July)

Event Time Altitude Azimuth Distance (km) Brightness Sun altitude
Exits shadow 03:10:19 - 199° (SSW) 4,160 5.7 -6.6°
Reaches altitude 10° 03:12:43 10° 195° (SSW) 3,288 5.3 -6.3°
Maximum altitude 03:20:03 57° 119° (ESE) 1,448 4.1 -5.3°
Drops below altitude 10° 03:27:40 10° 43° (NE) 3,415 7.7 -4.2°
Sets 03:30:44 0° 40° (NE) 4,526 8.5 -3.8°
